Overview Statistics Trail Chart Weather Telemetry Raw packets
 

This is the latest recevied weather packets stored in our database for station/object N7IGG. If no packets are shown the sender has not sent any weather packets the latest 10 day(s).

<< 51 52 53 54 55 56 57 >>
Time Temp. Humidity Pressure Rain* Wind** Luminosity Snow
1777819432 12.78° C 86% 1014.3 hPa 0 mm - 24 W/m² -
1777819129 12.78° C 86% 1014.4 hPa 0 mm - 24 W/m² -
1777818825 12.78° C 86% 1014.4 hPa 0 mm - 23 W/m² -
1777818522 12.78° C 86% 1014.4 hPa 0 mm - 23 W/m² -
1777818220 12.78° C 85% 1014.5 hPa 0 mm - 22 W/m² -
1777817915 12.22° C 84% 1014.3 hPa 0 mm - 22 W/m² -
1777817613 12.22° C 84% 1014.3 hPa 0 mm - 21 W/m² -
1777817309 12.78° C 83% 1014.2 hPa 0 mm - 21 W/m² -
1777817007 12.78° C 81% 1014.3 hPa 0 mm - 18 W/m² -
1777816703 13.33° C 79% 1014.3 hPa 0 mm - 17 W/m² -
1777816400 15° C 77% 1014 hPa 0 mm - 18 W/m² -
1777816098 15° C 77% 1014 hPa 0 mm - 16 W/m² -
1777815795 14.44° C 78% 1014 hPa 0 mm - 15 W/m² -
1777815492 14.44° C 78% 1014.1 hPa 0 mm - 13 W/m² -
1777815190 14.44° C 80% 1014 hPa 0 mm - 12 W/m² -
1777814886 13.89° C 81% 1014.2 hPa 0 mm - 10 W/m² -
1777814583 13.89° C 82% 1014 hPa 0 mm - 9 W/m² -
1777814280 13.89° C 82% 1014.1 hPa 0 mm - 7 W/m² -
1777813976 13.33° C 83% 1014.2 hPa 0 mm - 5 W/m² -
1777813674 13.33° C 83% 1014 hPa 0 mm - 5 W/m² -
1777813371 12.78° C 83% 1014.1 hPa 0 mm - 2 W/m² -
1777813069 12.78° C 83% 1013.9 hPa 0 mm - 0 W/m² -
1777812767 12.78° C 83% 1014.3 hPa 0 mm - 0 W/m² -
1777812462 12.78° C 83% 1014 hPa 0 mm - 0 W/m² -
1777812161 12.78° C 84% 1014 hPa 0 mm - 0 W/m² -

* Rain latest hour (hover to see other rain measurements)
** Current wind speed in m/s (hover to see current wind gust speed)